Retour au catalogue

HIMAWARI 3

GMS 3

ActifMétéoGEO
NORAD 15152·PAYLOAD·🇯🇵 Japan

Lancé Aug 2, 1984 depuis Tanegashima Space Center

Loading…

TLE

FraisSource: Space-Track

Époque: Sep 13, 2026, 17:36 UTC

1 15152U 84080A   26256.73401454  .00000003  00000-0  00000-0 0  9996
2 15152  10.4985 323.1244 0005316 158.8906 206.6367  0.99823918153530

Suivez HIMAWARI 3 en temps réel avec AllMySat

Download on the App Store